Location: Medoc Mountain State Park
(36.2578°N, 77.8786°W)
Time: 20:20:42
(UTC-04:00)

Daily predictions for brighter satellites

Satellite Brightness Start Highest point End
(mag) Time Altitude Azimuth Time Altitude Azimuth Time Altitude Azimuth
SJ-6B 2.9 19:46:49 10° SSE 19:50:26 49° ENE 19:54:03 10° N
Tiangong 1 2.8 19:48:52 10° NW 19:51:15 22° N 19:53:37 10° ENE
Cosmos 1437 Rocket 3.4 19:49:05 10° SSE 19:52:42 34° E 19:56:22 10° NNE
METEOR-M 4.2 19:49:11 10° SSE 19:54:31 89° WSW 19:59:53 10° NNW
ALOS 2.4 19:54:00 10° SSE 19:58:31 52° ENE 20:03:04 10° N
SeaSat 1 2.4 19:55:45 10° SSE 20:00:38 72° ENE 20:05:34 10° NNW
Cosmos 405 2.9 19:58:16 10° S 20:01:46 71° E 20:05:17 10° NNE
Lacrosse 5 2.6 19:57:19 10° S 20:01:50 33° ESE 20:06:20 10° ENE
Cosmos 1821 Rocket 4.1 19:58:44 10° S 20:04:58 59° E 20:11:12 10° NNE
Cosmos 1535 Rocket 4.5 20:05:32 10° S 20:11:39 65° E 20:17:54 10° NNE
FengYun 1-2 T 4.2 20:08:33 10° SSE 20:14:02 68° ENE 20:19:37 10° N
Cosmos 1844 Rocket 2.7 20:08:29 10° SSW 20:14:08 88° WNW 20:19:49 10° NNE
Resurs 01 Rocket 1.8 20:12:05 10° SSE 20:16:20 51° ENE 20:20:37 10° N
Cosmos 1953 3.9 20:19:44 16° E 20:19:44 16° E 20:22:01 10° NE
Cosmos 2278 Rocket 2.5 20:15:30 10° S 20:20:46 41° ESE 20:26:05 10° NE
BREEZE-M DEB (TANK) 2.5 20:19:21 10° SW 20:21:50 84° SE 20:27:12 10° NE
Cosmos 1812 Rocket 3.5 20:17:43 10° S 20:22:07 68° E 20:26:30 10° NNE
Cosmos 1605 Rocket 4.3 20:17:06 10° SSE 20:22:52 42° E 20:28:45 10° NNE
FREGAT/IRIS 4.4 20:23:01 10° SSW 20:25:53 35° W 20:28:45 10° NNW
CZ-2C R/B 2.3 20:24:19 10° NNE 20:29:45 - SSE 20:25:16 22° NE
H-2A R/B 2.7 20:28:49 10° SSE 20:32:40 81° ENE 20:36:35 10° N
Cosmos 2150 Rocket 4.1 20:28:12 10° SSW 20:33:20 76° WNW 20:38:30 10° NNE
Meteor 1-24 Rocket 3.6 20:27:56 10° N 20:33:23 67° E 20:39:00 10° SSE
Cosmos 1378 3.0 20:29:36 10° N 20:33:23 83° E 20:37:08 10° S
Spot 2 Rocket 3.4 20:30:03 10° SSE 20:35:08 78° ENE 20:40:15 10° N
Meteor 2-5 Rocket 4.2 20:29:54 10° NNW 20:35:34 68° W 20:41:20 10° S
FENGYUN 3A 4.0 20:30:40 10° S 20:36:03 70° WSW 20:41:27 10° NNW
SAR-Lupe-4 4.0 20:35:51 27° ESE 20:37:12 40° ENE 20:40:35 10° N
Cosmos 2123 Rocket 4.0 20:31:44 10° N 20:38:00 61° E 20:44:11 10° SSE
CZ-3 Stage 3 4.1 19:42:03 10° WSW 20:39:19 69° S 20:45:16 23° ESE
OAO 1 4.5 20:34:14 10° W 20:39:43 77° S 20:42:51 26° E
Cosmos 1707 4.0 20:36:52 10° NNW 20:40:36 44° W 20:44:18 10° SSW
Delta 2 Rocket 3.3 20:37:58 10° W 20:42:34 82° S 20:44:17 34° E
USA 215 3.2 20:36:52 10° NE 20:43:26 79° SE 20:49:57 10° SW
RESURS DK-1 2.9 20:41:51 10° N 20:45:46 39° ENE 20:46:35 35° E
Cosmos 1766 3.4 20:45:24 10° SSW 20:49:15 73° W 20:53:08 10° N
Cosmos 2082 Rocket 3.5 20:48:46 10° N 20:53:01 21° ENE 20:53:25 21° ENE
Envisat 3.4 20:51:33 32° ESE 20:53:02 40° ENE 20:57:45 10° N
Cosmos 990 Rocket 4.4 20:48:23 10° SSW 20:53:35 66° WNW 20:58:49 10° NNE
SAR-Lupe-1 4.0 20:56:01 56° ESE 20:56:29 63° ENE 21:00:03 10° N
COSMOS 2406 4.0 20:51:39 10° NNW 20:57:11 51° WSW 21:02:40 10° S
Cosmos 1125 Rocket 3.8 20:52:58 10° S 20:57:49 42° ESE 21:02:42 10° NNE
Cosmos 1544 2.9 21:04:09 59° S 21:04:45 81° E 21:08:25 10° N
Helios 1A 2.8 21:04:20 35° SSE 21:06:02 90° SSE 21:10:13 10° NNW
Meteor 1-21 Rocket 4.4 21:04:07 10° N 21:09:46 51° ENE 21:10:58 44° ESE
Helios 1B rocket 2.7 21:07:04 10° N 21:11:10 67° WNW 21:15:15 10° SSW
CZ-3B DEB 3.8 21:04:20 10° WSW 21:15:20 47° NW 21:20:29 10° NNE
Cosmos 1818 4.3 21:11:00 10° NNW 21:15:57 35° NE 21:15:57 35° NE
Cosmos 1447 Rocket 4.3 21:11:59 10° N 21:18:06 71° E 21:20:33 38° SSE
Lacrosse 4 Rocket 4.3 21:18:25 10° W 21:21:05 17° NW 21:23:47 10° NNW
Cosmos 2344 4.4 21:14:45 10° SW 21:22:11 53° NW 21:30:28 10° NNE
ERS-1 Rocket 3.7 21:23:35 37° NE 21:23:35 37° NE 21:27:16 10° N
SL-27 R/B 3.4 21:20:40 10° NNW 21:24:06 46° WSW 21:24:08 46° WSW
Cosmos 1459 Rocket 4.0 21:24:00 52° E 21:24:12 52° E 21:30:13 10° NNE
Meteor 1-29 3.9 21:21:29 10° N 21:24:51 48° WNW 21:25:08 46° W
Cosmos 2173 Rocket 4.1 21:25:17 51° E 21:25:17 51° E 21:31:00 10° NNE
Yuri Rocket 4.5 21:23:18 10° WSW 21:25:54 25° SSW 21:25:54 25° SSW
Tiangong 1 3.5 21:24:42 10° NW 21:25:53 21° NW 21:25:53 21° NW
Cosmos 1805 4.1 21:24:06 11° SSW 21:27:37 48° W 21:31:24 10° N
Cosmos 2098 Rocket 4.3 21:22:03 10° S 21:28:48 84° W 21:36:26 10° N
Lacrosse 5 3.3 21:40:04 10° WSW 21:44:43 36° NW 21:47:58 18° NNE
Cosmos 1939 Rocket 4.3 21:50:46 36° NW 21:50:46 36° NW 21:53:30 10° NNW
GP-B 4.3 21:53:44 38° W 21:53:56 39° W 21:58:07 10° NNW
Cosmos 1953 4.2 21:55:19 29° W 21:55:36 29° WNW 21:59:12 10° NNW
Cosmos 2278 Rocket 4.3 22:00:21 10° WSW 22:04:58 25° WNW 22:09:37 10° N
Cosmos 2100 Rocket 4.3 22:04:49 52° SW 22:06:11 66° W 22:12:31 10° N
Cosmos 1833 Rocket 3.5 22:04:43 10° NNW 22:08:28 44° NNW 22:08:28 44° NNW
H-2A R/B 4.3 22:17:09 16° NNE 22:17:09 16° NNE 22:18:20 10° N
H-2A R/B (2) 4.1 22:13:45 10° WSW 22:15:05 21° SW 22:15:05 21° SW
Cosmos 2082 Rocket 3.6 22:31:54 10° NNW 22:35:17 34° NW 22:35:17 34° NW
USA 267 4.3 22:59:17 39° NW 22:59:17 39° NW 23:03:09 10° NW
